Total_Precipitation_Accumulation
0.14 0.14 0.15 0.20 0.17 0.11 0.04 0.01 0.00 0.00 0.01 0.01 0.02 0.03 0.03 0.03 0.04 0.08 0.09 0.08 0.09 0.09 0.14 0.30 0.42 0.47 0.53 0.56 0.55 0.52 0.48 0.52 0.57 0.61 0.65 0.74 0.75 0.71 0.73 0.68 0.66 0.68 0.76 0.79 0.82 0.81 0.77 0.70 0.70
0.15 0.19 0.23 0.28 0.16 0.07 0.03 0.01 0.00 0.01 0.01 0.02 0.04 0.05 0.03 0.03 0.02 0.05 0.09 0.07 0.05 0.06 0.11 0.22 0.38 0.46 0.52 0.55 0.54 0.53 0.52 0.53 0.57 0.60 0.65 0.71 0.72 0.75 0.74 0.69 0.69 0.72 0.79 0.83 0.82 0.82 0.78 0.72 0.67
0.21 0.29 0.33 0.28 0.13 0.04 0.02 0.01 0.00 0.00 0.01 0.03 0.04 0.06 0.05 0.05 0.04 0.06 0.08 0.05 0.05 0.07 0.11 0.23 0.40 0.50 0.56 0.59 0.57 0.56 0.56 0.57 0.59 0.61 0.67 0.75 0.73 0.73 0.70 0.65 0.64 0.69 0.80 0.86 0.83 0.76 0.71 0.71 0.68
0.29 0.44 0.46 0.28 0.10 0.04 0.02 0.01 0.01 0.01 0.01 0.04 0.04 0.05 0.05 0.06 0.05 0.07 0.08 0.06 0.06 0.10 0.14 0.27 0.44 0.53 0.59 0.63 0.64 0.62 0.62 0.64 0.66 0.69 0.73 0.81 0.79 0.79 0.75 0.68 0.63 0.61 0.68 0.77 0.78 0.72 0.70 0.69 0.63
0.38 0.49 0.47 0.25 0.08 0.04 0.02 0.01 0.01 0.01 0.02 0.04 0.05 0.06 0.06 0.08 0.07 0.08 0.09 0.09 0.07 0.10 0.16 0.30 0.51 0.62 0.65 0.68 0.69 0.70 0.69 0.72 0.74 0.78 0.82 0.86 0.83 0.80 0.77 0.72 0.67 0.62 0.60 0.65 0.72 0.73 0.71 0.69 0.62
0.53 0.52 0.37 0.20 0.09 0.04 0.02 0.01 0.01 0.02 0.02 0.04 0.04 0.06 0.10 0.12 0.10 0.11 0.13 0.13 0.10 0.13 0.21 0.34 0.60 0.72 0.76 0.76 0.78 0.79 0.80 0.82 0.84 0.86 0.89 0.91 0.86 0.80 0.75 0.73 0.68 0.62 0.56 0.54 0.58 0.63 0.63 0.62 0.60
0.55 0.49 0.27 0.14 0.09 0.05 0.03 0.02 0.02 0.03 0.03 0.04 0.04 0.07 0.13 0.16 0.13 0.14 0.19 0.19 0.19 0.24 0.32 0.43 0.62 0.76 0.89 0.89 0.86 0.89 0.90 0.91 0.93 0.96 0.94 0.91 0.86 0.83 0.80 0.74 0.68 0.64 0.60 0.54 0.49 0.50 0.50 0.49 0.50
0.57 0.59 0.33 0.16 0.11 0.07 0.03 0.03 0.03 0.04 0.03 0.04 0.05 0.08 0.12 0.15 0.15 0.18 0.31 0.32 0.30 0.36 0.46 0.55 0.68 0.78 0.88 0.94 0.95 0.96 0.99 1.01 1.02 1.03 0.97 0.90 0.89 0.89 0.84 0.74 0.67 0.68 0.68 0.61 0.54 0.51 0.47 0.42 0.40
0.66 0.74 0.38 0.15 0.12 0.09 0.06 0.05 0.04 0.04 0.04 0.05 0.06 0.07 0.11 0.15 0.18 0.22 0.34 0.44 0.47 0.49 0.58 0.68 0.78 0.86 0.95 1.02 1.02 1.13 1.20 1.21 1.21 1.14 1.06 1.03 1.00 0.94 0.83 0.70 0.68 0.73 0.74 0.64 0.58 0.54 0.49 0.46 0.38
0.71 0.62 0.30 0.10 0.09 0.10 0.09 0.10 0.10 0.09 0.07 0.07 0.07 0.08 0.12 0.20 0.24 0.27 0.32 0.38 0.50 0.53 0.60 0.73 0.84 0.92 1.04 1.12 1.23 1.32 1.34 1.35 1.30 1.12 1.04 1.05 0.96 0.89 0.82 0.74 0.71 0.74 0.73 0.67 0.62 0.58 0.55 0.53 0.42
0.55 0.42 0.21 0.11 0.09 0.12 0.13 0.12 0.13 0.15 0.13 0.09 0.11 0.11 0.16 0.27 0.33 0.36 0.38 0.38 0.40 0.48 0.60 0.72 0.89 1.05 1.12 1.15 1.28 1.36 1.36 1.34 1.32 1.22 1.11 1.06 1.07 0.99 0.93 0.85 0.85 0.83 0.77 0.74 0.71 0.70 0.63 0.58 0.54
0.42 0.30 0.23 0.17 0.14 0.16 0.17 0.16 0.16 0.16 0.14 0.11 0.13 0.17 0.21 0.30 0.38 0.41 0.48 0.46 0.43 0.50 0.64 0.80 0.98 1.12 1.18 1.17 1.26 1.32 1.26 1.21 1.18 1.13 1.15 1.13 1.13 1.06 0.97 0.92 0.90 0.90 0.85 0.79 0.75 0.70 0.64 0.59 0.56
0.38 0.24 0.19 0.20 0.18 0.19 0.20 0.17 0.16 0.13 0.10 0.12 0.14 0.19 0.26 0.29 0.41 0.49 0.60 0.64 0.57 0.56 0.69 0.90 1.08 1.19 1.29 1.29 1.30 1.31 1.23 1.16 1.19 1.15 1.15 1.11 1.01 0.95 0.86 0.81 0.82 0.74 0.68 0.67 0.66 0.65 0.63 0.58 0.55
0.33 0.24 0.19 0.21 0.23 0.22 0.24 0.20 0.16 0.12 0.10 0.15 0.19 0.19 0.23 0.29 0.38 0.52 0.68 0.71 0.68 0.67 0.77 0.96 1.17 1.31 1.44 1.37 1.34 1.28 1.26 1.24 1.31 1.28 1.13 1.08 1.01 0.92 0.86 0.78 0.76 0.69 0.59 0.54 0.53 0.52 0.54 0.54 0.51
0.35 0.35 0.28 0.21 0.22 0.23 0.32 0.32 0.17 0.12 0.15 0.19 0.21 0.20 0.22 0.28 0.37 0.49 0.64 0.71 0.71 0.77 0.91 1.04 1.19 1.42 1.58 1.53 1.46 1.40 1.35 1.31 1.28 1.34 1.34 1.20 1.06 0.98 0.93 0.85 0.78 0.74 0.68 0.64 0.60 0.57 0.54 0.52 0.49
0.52 0.59 0.48 0.24 0.19 0.24 0.43 0.43 0.17 0.14 0.20 0.22 0.22 0.22 0.24 0.26 0.34 0.47 0.60 0.76 0.82 0.93 1.08 1.19 1.33 1.49 1.61 1.65 1.63 1.52 1.45 1.46 1.37 1.35 1.43 1.47 1.29 1.10 1.00 0.93 0.86 0.85 0.84 0.80 0.74 0.66 0.60 0.54 0.49
0.73 0.67 0.43 0.24 0.18 0.27 0.44 0.39 0.18 0.17 0.22 0.22 0.22 0.23 0.24 0.27 0.32 0.43 0.54 0.68 0.83 0.98 1.14 1.28 1.41 1.58 1.73 1.80 1.80 1.75 1.59 1.54 1.52 1.46 1.44 1.51 1.54 1.35 1.15 1.03 0.98 0.99 1.02 0.95 0.85 0.77 0.66 0.60 0.54
0.64 0.47 0.32 0.23 0.20 0.28 0.35 0.28 0.18 0.19 0.22 0.20 0.21 0.24 0.25 0.28 0.32 0.40 0.52 0.64 0.79 0.92 1.13 1.33 1.49 1.66 1.85 2.01 2.02 2.01 1.91 1.70 1.61 1.55 1.43 1.41 1.50 1.53 1.39 1.22 1.14 1.11 1.12 1.07 0.95 0.85 0.76 0.69 0.65
0.43 0.44 0.34 0.20 0.17 0.33 0.31 0.23 0.19 0.20 0.23 0.23 0.22 0.26 0.28 0.29 0.36 0.43 0.58 0.70 0.81 0.90 1.05 1.25 1.41 1.58 1.81 1.95 2.00 1.98 1.94 1.78 1.69 1.61 1.52 1.45 1.46 1.53 1.53 1.36 1.25 1.14 1.09 1.04 0.95 0.90 0.88 0.82 0.78
0.50 0.54 0.42 0.29 0.21 0.35 0.34 0.25 0.21 0.20 0.23 0.25 0.24 0.27 0.30 0.28 0.35 0.42 0.53 0.70 0.78 0.84 0.94 1.14 1.34 1.47 1.67 1.83 1.85 1.94 1.91 1.85 1.75 1.64 1.60 1.53 1.46 1.51 1.61 1.53 1.43 1.32 1.20 1.18 1.15 1.07 1.02 0.97 0.89
0.55 0.49 0.41 0.39 0.35 0.38 0.44 0.39 0.22 0.20 0.19 0.22 0.22 0.24 0.27 0.30 0.32 0.37 0.48 0.63 0.75 0.81 0.90 1.05 1.25 1.41 1.52 1.76 2.02 2.20 2.27 2.12 1.98 1.81 1.63 1.51 1.48 1.46 1.56 1.64 1.60 1.54 1.43 1.30 1.21 1.17 1.11 1.09 0.99
0.61 0.33 0.36 0.44 0.68 0.72 0.58 0.69 0.27 0.20 0.17 0.21 0.23 0.22 0.22 0.26 0.27 0.31 0.42 0.56 0.69 0.78 0.93 1.08 1.16 1.35 1.54 1.67 1.94 2.18 2.27 2.13 1.83 1.73 1.69 1.61 1.52 1.47 1.45 1.54 1.58 1.55 1.50 1.38 1.21 1.11 1.05 1.09 1.11
0.50 0.35 0.40 0.51 0.79 0.93 0.62 0.73 0.33 0.19 0.20 0.20 0.23 0.22 0.21 0.24 0.27 0.29 0.36 0.47 0.59 0.78 0.94 1.09 1.18 1.33 1.56 1.73 1.84 2.11 2.27 2.16 1.98 1.85 1.75 1.66 1.61 1.55 1.44 1.41 1.47 1.52 1.50 1.46 1.36 1.21 1.16 1.13 1.13
0.47 0.56 0.67 0.80 1.28 1.56 0.59 0.57 0.39 0.26 0.28 0.23 0.24 0.25 0.24 0.25 0.30 0.31 0.36 0.45 0.55 0.74 0.87 1.06 1.21 1.27 1.49 1.71 1.86 2.00 2.22 2.32 2.20 2.04 1.93 1.77 1.70 1.63 1.54 1.42 1.42 1.45 1.48 1.48 1.47 1.39 1.30 1.22 1.12
0.79 1.33 1.98 2.18 2.22 1.34 0.31 0.40 0.42 0.28 0.26 0.29 0.32 0.32 0.30 0.28 0.30 0.33 0.37 0.46 0.50 0.68 0.82 0.99 1.22 1.24 1.32 1.51 1.72 1.90 2.08 2.26 2.35 2.19 1.98 1.87 1.84 1.75 1.57 1.47 1.40 1.39 1.36 1.34 1.36 1.44 1.44 1.34 1.26
0.83 1.19 1.59 1.49 0.99 0.48 0.28 0.38 0.36 0.29 0.26 0.25 0.26 0.30 0.29 0.28 0.29 0.34 0.38 0.45 0.48 0.56 0.69 0.87 1.11 1.19 1.20 1.31 1.48 1.76 2.01 2.19 2.28 2.30 2.09 1.92 1.83 1.72 1.58 1.48 1.39 1.32 1.31 1.29 1.27 1.30 1.36 1.35 1.29
0.81 0.88 0.80 1.08 0.79 0.52 0.41 0.36 0.29 0.20 0.19 0.20 0.23 0.28 0.30 0.33 0.33 0.35 0.43 0.46 0.50 0.53 0.62 0.78 1.02 1.15 1.12 1.21 1.32 1.50 1.77 2.04 2.18 2.21 2.20 2.05 1.90 1.78 1.67 1.55 1.50 1.41 1.36 1.32 1.30 1.28 1.25 1.25 1.26
0.65 0.80 0.91 1.40 1.27 0.76 0.44 0.33 0.41 0.31 0.25 0.21 0.24 0.30 0.33 0.34 0.37 0.37 0.42 0.48 0.51 0.53 0.60 0.74 0.91 1.13 1.15 1.16 1.24 1.34 1.49 1.73 1.98 2.15 2.25 2.09 1.98 1.90 1.90 1.80 1.67 1.55 1.51 1.46 1.39 1.32 1.22 1.22 1.22
0.75 0.97 1.18 1.21 0.98 0.82 0.61 0.49 0.52 0.43 0.36 0.31 0.28 0.31 0.35 0.36 0.41 0.43 0.43 0.46 0.51 0.53 0.58 0.72 0.86 1.03 1.20 1.24 1.23 1.33 1.43 1.61 1.79 1.87 2.02 2.10 2.05 1.96 2.00 2.02 1.94 1.80 1.68 1.60 1.55 1.47 1.38 1.34 1.25
0.76 0.88 1.02 1.23 0.95 0.58 0.60 0.55 0.43 0.36 0.34 0.33 0.31 0.30 0.36 0.41 0.45 0.47 0.46 0.43 0.47 0.53 0.57 0.65 0.83 0.97 1.10 1.24 1.28 1.32 1.42 1.59 1.70 1.70 1.72 1.83 1.97 1.96 1.96 2.11 2.12 2.04 1.90 1.78 1.76 1.71 1.60 1.55 1.46